Location: Miles
(41.4492°N, 81.6087°W)
Time: 18:41:52
(UTC+00:00)

Tiros 1 despin weight - Pass Details

Date: 20 September 2024
Orbit: 573 x 615 km, 48.2° (Epoch: 04 October)

Event Time Altitude Azimuth Distance (km) Brightness Sun altitude
Rises 10:58:19 0° 297° (WNW) 2,885 - -3.5°
Exits shadow 10:58:20 - 297° (WNW) 2,877 ? -3.5°
Reaches altitude 10° 11:00:41 10° 302° (WNW) 1,981 ? -3.0°
Maximum altitude 11:05:08 52° 19° (NNE) 769 ? -2.2°
Drops below altitude 10° 11:09:35 10° 97° (E) 1,976 ? -1.4°
Sets 11:11:57 0° 102° (ESE) 2,876 ? -0.9°
